Date String (YYYY-MM-DD hh:mm:ss) UTC,Instrument flags,absolute air pressure of the measurement (hPa),sample flow rate (lpm),inlet stack bypass flow (lpm),air temperature of the measurement (°C),ambient temperature measured by the external sensor (°C),aerosol sample conditioner tube jacket temperature (°C),OPC LED temperature (°C),internal box temperature (°C),relative humidity of the measurement (%),span deviation,mass concentration of particles derived from Lorenz-Mie calculation of OPC scattering (μg/m³),mass concentration of particles derived from Lorenz-Mie calculation of OPC scattering (μg/m³),mass concentration of particles derived from Lorenz-Mie calculation of OPC scattering (μg/m³)
DateTimeUTC,F1_M11,P_M11,Q1_M11,Q2_M11,T1_M11,T2_M11,T3_M11,T4_M11,T5_M11,U1_M11,ZSPAN_M11,X0_M11,X2_M11,X1_M11
2023-08-10 12:00:00,SystemResetWarning,0828.7,5.00,000.00,030.0,028.8,000.0,038.6,031.6,22.5,0000.5,0014.45,0006.30,0005.52
2023-08-10 12:01:00,SystemResetWarning,0828.7,5.01,000.00,030.0,028.8,000.0,038.6,031.6,22.4,0000.7,0014.65,0006.34,0005.53
2023-08-10 12:02:00,SystemResetWarning,0828.8,5.00,000.00,030.0,028.8,000.0,038.6,031.6,22.4,0001.0,0014.76,0006.30,0005.53
2023-08-10 12:03:00,SystemResetWarning,0828.7,5.00,000.00,030.0,027.3,000.0,038.5,031.5,22.4,0001.5,0014.83,0006.29,0005.53
2023-08-10 12:04:00,SystemResetWarning,0828.8,5.01,000.00,029.9,025.6,000.0,038.3,031.2,22.6,0001.3,0015.17,0006.34,0005.53
2023-08-10 12:05:00,SystemResetWarning,0828.8,5.01,000.00,029.8,025.4,000.0,038.3,030.9,22.7,0000.0,0015.09,0006.37,0005.54
2023-08-10 12:06:00,SystemResetWarning,0828.8,4.99,000.00,029.7,025.6,000.0,038.3,030.8,22.9,0000.0,0014.70,0006.34,0005.54
2023-08-10 12:07:00,SystemResetWarning,0828.8,5.00,000.00,029.6,026.0,000.0,038.3,030.9,23.1,0000.0,0014.58,0006.38,0005.55
2023-08-10 12:08:00,SystemResetWarning,0828.7,5.01,000.00,029.6,026.4,000.0,038.3,030.9,23.2,0000.0,0014.43,0006.38,0005.56
2023-08-10 12:09:00,SystemResetWarning,0828.9,4.99,000.00,029.6,026.8,000.0,038.3,031.0,23.3,0000.0,0014.35,0006.41,0005.56
2023-08-10 12:10:00,SystemResetWarning,0828.9,4.99,000.00,029.6,027.1,000.0,038.3,031.1,23.4,0000.0,0013.86,0006.40,0005.56
2023-08-10 12:11:00,SystemResetWarning,0828.8,5.01,000.00,029.6,027.4,000.0,038.3,031.1,23.3,0000.0,0013.74,0006.37,0005.56
2023-08-10 12:12:00,SystemResetWarning,0828.8,5.01,000.00,029.6,027.6,000.0,038.3,031.1,23.2,0000.0,0013.12,0006.34,0005.56
2023-08-10 12:13:00,SystemResetWarning,0828.8,5.01,000.00,029.6,027.8,000.0,038.3,031.2,23.2,0000.0,0012.80,0006.32,0005.57
2023-08-10 12:14:00,SystemResetWarning,0828.9,4.99,000.00,029.6,027.9,000.0,038.3,031.2,23.2,0000.0,0012.41,0006.30,0005.57
2023-08-10 12:15:00,SystemResetWarning,0828.9,4.99,000.00,029.6,028.0,000.0,038.3,031.2,23.2,0000.0,0012.09,0006.27,0005.57
2023-08-10 12:16:00,SystemResetWarning,0829.0,5.00,000.00,029.6,028.1,000.0,038.3,031.2,23.1,0000.0,0012.30,0006.24,0005.56
2023-08-10 12:17:00,SystemResetWarning,0829.0,5.01,000.00,029.7,028.2,000.0,038.3,031.3,23.0,0002.5,0012.03,0006.26,0005.57
2023-08-10 12:18:00,SystemResetWarning,0829.0,5.01,000.00,029.7,028.3,000.0,038.3,031.3,23.0,0002.2,0011.59,0006.23,0005.58
2023-08-10 12:19:00,SystemResetWarning,0829.1,5.01,000.00,029.7,028.4,000.0,038.3,031.3,23.1,0002.9,0011.25,0006.20,0005.58
2023-08-10 12:20:00,SystemResetWarning,0829.1,4.99,000.00,029.7,028.4,000.0,038.3,031.3,22.9,0003.0,0011.09,0006.14,0005.58
2023-08-10 12:21:00,SystemResetWarning,0829.1,4.99,000.00,029.7,028.4,000.0,038.3,031.3,22.7,0001.7,0011.10,0006.14,0005.59
2023-08-10 12:22:00,SystemResetWarning,0829.1,5.00,000.00,029.8,028.5,000.0,038.4,031.4,22.7,0000.0,0011.84,0006.14,0005.59
2023-08-10 12:23:00,SystemResetWarning,0829.1,5.01,000.00,029.8,028.5,000.0,038.4,031.4,22.7,0002.9,0013.29,0006.17,0005.59
2023-08-10 12:24:00,SystemResetWarning,0829.0,5.01,000.00,029.8,028.6,000.0,038.4,031.4,22.6,0003.1,0014.35,0006.20,0005.59
2023-08-10 12:25:00,SystemResetWarning,0829.0,4.99,000.00,029.8,028.6,000.0,038.4,031.4,22.6,0002.0,0014.54,0006.20,0005.59
2023-08-10 12:26:00,SystemResetWarning,0829.0,5.00,000.00,029.8,028.6,000.0,038.4,031.5,22.5,0002.8,0014.70,0006.18,0005.60
2023-08-10 12:27:00,SystemResetWarning,0829.0,5.00,000.00,029.9,028.7,000.0,038.4,031.5,22.5,0001.8,0014.99,0006.18,0005.61
2023-08-10 12:28:00,SystemResetWarning,0829.1,5.00,000.00,029.9,028.7,000.0,038.4,031.5,22.6,0000.0,0014.90,0006.18,0005.60
2023-08-10 12:29:00,SystemResetWarning,0829.1,4.99,000.00,029.9,028.7,000.0,038.5,031.5,22.7,0000.0,0014.47,0006.21,0005.60
2023-08-10 12:30:00,SystemResetWarning,0829.1,5.01,000.00,029.9,028.7,000.0,038.5,031.5,22.6,0001.9,0014.42,0006.22,0005.60
2023-08-10 12:31:00,SystemResetWarning,0829.1,5.01,000.00,029.9,028.8,000.0,038.5,031.6,22.7,0002.3,0014.80,0006.24,0005.60
2023-08-10 12:32:00,SystemResetWarning,0829.1,5.01,000.00,030.0,028.8,000.0,038.5,031.6,22.7,0002.1,0014.82,0006.28,0005.59
2023-08-10 12:33:00,SystemResetWarning,0829.1,5.00,000.00,030.0,028.8,000.0,038.5,031.6,22.5,0002.1,0013.98,0006.29,0005.59
2023-08-10 12:34:00,SystemResetWarning,0829.1,5.01,000.00,030.0,028.8,000.0,038.6,031.6,22.2,0002.3,0013.13,0006.29,0005.59
2023-08-10 12:35:00,SystemResetWarning,0829.1,5.00,000.00,030.0,028.8,000.0,038.6,031.6,22.1,0002.2,0012.20,0006.30,0005.60
2023-08-10 12:36:00,SystemResetWarning,0829.1,5.00,000.00,030.0,028.9,000.0,038.6,031.7,22.1,0001.8,0011.90,0006.30,0005.60
2023-08-10 12:37:00,SystemResetWarning,0829.2,5.00,000.00,030.0,028.9,000.0,038.6,031.7,22.2,0001.4,0012.08,0006.29,0005.60
2023-08-10 12:38:00,SystemResetWarning,0829.2,5.00,000.00,030.1,028.9,000.0,038.6,031.7,22.2,0001.4,0011.89,0006.27,0005.61
2023-08-10 12:39:00,SystemResetWarning,0829.4,4.99,000.00,030.1,028.0,000.0,038.6,031.6,22.4,0001.0,0012.17,0006.27,0005.61
2023-08-10 12:40:00,SystemResetWarning,0829.3,5.00,000.00,030.0,026.1,000.0,038.4,031.3,24.2,0000.4,0013.04,0006.23,0005.61
2023-08-10 12:41:00,SystemResetWarning,0829.4,5.01,000.00,029.9,025.5,000.0,038.3,031.1,25.0,-000.5,0013.43,0006.22,0005.61
2023-08-10 12:42:00,SystemResetWarning,0829.2,5.01,000.00,029.8,025.6,000.0,038.3,030.8,25.4,-000.2,0013.01,0006.23,0005.61
2023-08-10 12:43:00,SystemResetWarning,0829.1,5.00,000.00,029.7,026.0,000.0,038.4,030.9,24.8,-000.0,0013.33,0006.24,0005.62
2023-08-10 12:44:00,SystemResetWarning,0829.1,5.00,000.00,029.6,026.4,000.0,038.4,031.0,24.2,0000.2,0013.44,0006.26,0005.63
2023-08-10 12:45:00,SystemResetWarning,0829.1,4.99,000.00,029.6,026.8,000.0,038.4,031.0,24.1,0000.2,0013.42,0006.25,0005.64
2023-08-10 12:46:00,SystemResetWarning,0829.2,4.99,000.00,029.6,027.1,000.0,038.4,031.1,23.9,0000.0,0013.31,0006.21,0005.63
2023-08-10 12:47:00,SystemResetWarning,0829.2,5.00,000.00,029.6,027.4,000.0,038.4,031.1,23.8,0000.1,0013.49,0006.19,0005.64
2023-08-10 12:48:00,SystemResetWarning,0829.2,5.00,000.00,029.6,027.6,000.0,038.3,031.2,23.9,0000.1,0013.94,0006.24,0005.65
2023-08-10 12:49:00,SystemResetWarning,0829.1,5.00,000.00,029.6,027.8,000.0,038.3,031.2,23.5,0000.4,0013.65,0006.23,0005.65
2023-08-10 12:50:00,SystemResetWarning,0829.1,5.01,000.00,029.7,028.0,000.0,038.4,031.2,23.5,0000.6,0013.41,0006.23,0005.64
2023-08-10 12:51:00,SystemResetWarning,0829.2,4.99,000.00,029.7,028.1,000.0,038.4,031.3,23.7,0000.6,0012.71,0006.24,0005.64
2023-08-10 12:52:00,SystemResetWarning,0829.3,5.00,000.00,029.7,028.2,000.0,038.3,031.3,23.7,0001.5,0012.73,0006.29,0005.65
2023-08-10 12:53:00,SystemResetWarning,0829.4,5.00,000.00,029.7,028.3,000.0,038.3,031.3,23.9,0002.2,0013.99,0006.33,0005.66
2023-08-10 12:54:00,SystemResetWarning,0829.3,5.00,000.00,029.7,028.3,000.0,038.4,031.3,24.0,0002.2,0013.81,0006.32,0005.66
2023-08-10 12:55:00,SystemResetWarning,0829.3,5.00,000.00,029.7,028.4,000.0,038.4,031.4,24.1,0002.4,0013.51,0006.28,0005.65
2023-08-10 12:56:00,SystemResetWarning,0829.4,4.99,000.00,029.8,028.4,000.0,038.4,031.4,23.4,0002.2,0013.13,0006.28,0005.64
2023-08-10 12:57:00,SystemResetWarning,0829.4,4.99,000.00,029.8,028.5,000.0,038.4,031.4,23.4,0002.2,0012.93,0006.31,0005.63
2023-08-10 12:58:00,SystemResetWarning,0829.3,5.00,000.00,029.8,028.5,000.0,038.4,031.4,23.5,0000.8,0012.95,0006.32,0005.63
2023-08-10 12:59:00,SystemResetWarning,0829.3,5.01,000.00,029.8,028.6,000.0,038.4,031.4,23.5,0000.0,0012.63,0006.30,0005.62
